[[{"header":{"parameterUnit":"m.s-1","parameterCategory":1,"la1":30.2991,"la2":30.254,"lo1":-89.0895,"lo2":-89.0444,"dy":0.0017,"dx":0.0017,"nx":28,"ny":28,"refTime":"2024-05-20T09:00:00:Z","depth":0,"parameterNumber":2,"parameterNumberName":"U-component_of_WINDS"},"data":[0,0,0,0,0,0,0,0,0,0,0,0,0,0,0,0,0,0,0,0,0,0,0,0,0,0,0,0,0,0,0,0,0,0,0,0,0,0,0,0,0,0,0,0,0,0,0,0,0,0,0,0,0,0,0,0,0,0,-4.1703,-4.1703,0,-4.1651,-4.165,-4.165,-4.1515,-4.1512,-4.1509,-4.1507,-4.1456,-4.1458,-4.1459,0,0,0,0,0,0,0,0,0,0,0,0,0,-4.1692,-4.1693,-4.1703,-4.1703,-4.1702,-4.1651,-4.165,-4.165,-4.1516,-4.1512,-4.1509,-4.1505,-4.1456,-4.1458,-4.1459,0,0,0,0,0,0,0,0,0,0,0,0,0,-4.1674,-4.1693,-4.1704,-4.1629,-4.1622,-4.1651,-4.165,-4.1649,-4.1516,-4.1512,-4.1508,-4.1504,-4.1455,-4.1457,-4.1459,-4.1558,0,0,-4.1465,-4.1466,0,0,0,0,0,0,0,0,-4.1676,-4.1675,-4.1641,-4.1634,-4.1626,-4.1585,-4.1628,-4.1619,-4.1518,-4.1557,-4.1507,-4.1502,-4.1503,-4.1501,-4.15,-4.1555,-4.1553,-4.1466,-4.1467,-4.1468,-4.1468,0,0,0,0,0,0,0,-4.1677,-4.1676,-4.1683,-4.164,-4.1632,-4.16,-4.1593,-4.1625,-4.1555,-4.1553,-4.1543,-4.1538,-4.1498,-4.1499,-4.1498,-4.1552,-4.1466,-4.1467,-4.1469,-4.1469,-4.1687,-4.1692,0,0,0,0,0,0,-4.1688,-4.1678,-4.1684,-4.1681,-4.1641,-4.1604,-4.1595,-4.1603,-4.1554,-4.1542,-4.1542,-4.1532,-4.1498,-4.1496,-4.1496,-4.1608,-4.1468,-4.147,-4.1471,-4.1683,-4.1688,-4.1693,0,0,0,0,0,0,-4.1689,-4.169,-4.1686,-4.1677,-4.1674,-4.1608,-4.1618,-4.1604,-4.1604,-4.1546,-4.1533,-4.1555,-4.1494,-4.1493,-4.1543,-4.1604,-4.147,-4.1472,-4.1677,-4.1684,-4.1691,-4.1833,0,0,0,0,0,0,-4.1689,-4.1691,-4.1726,-4.1679,-4.1675,-4.1734,-4.1621,-4.1606,-4.1608,-4.1594,-4.1555,-4.1544,-4.1491,-4.1541,-4.1546,-4.1605,-4.1474,-4.1671,-4.168,-4.1689,-4.1823,-4.1844,-4.1863,0,0,0,0,0,-4.1689,-4.1769,-4.1729,-4.173,-4.1718,-4.1737,-4.1735,-4.1671,-4.1613,-4.1649,-4.1612,-4.1545,-4.1598,-4.1548,-4.1551,-4.1612,-4.1667,-4.1678,-4.1688,-4.1814,-4.184,-4.1862,0,0,0,0,0,0,-4.1826,-4.1761,-4.1716,-4.1783,-4.1767,-4.1715,-4.1757,-4.1701,-4.1701,-4.1689,-4.1611,-4.1603,-4.1664,-4.1643,-4.1589,-4.1706,-4.1622,-4.1634,-4.1716,-4.1741,-4.176,-4.1763,-4.1475,0,0,0,0,0,-4.1864,-4.1884,-4.1827,-4.1891,-4.1885,-4.1824,-4.183,-4.1782,-4.1762,-4.1755,-4.1721,-4.1706,-4.1719,-4.1729,-4.1738,-4.182,-4.181,-4.1864,-4.1884,-4.1901,-4.1911,-4.1954,-4.1978,-4.1727,-4.1727,-4.1727,0,0,-4.1942,-4.1909,-4.1927,-4.1918,-4.19,-4.1924,-4.1818,-4.1848,-4.1865,-4.176,-4.1804,-4.178,-4.1758,-4.1825,-4.1853,-4.181,-4.1979,-4.1914,-4.1928,-4.1929,-4.1967,-4.1991,-4.2012,-4.1734,-4.1733,-4.1732,0,0,-4.2096,-4.2074,-4.2125,-4.2109,-4.2083,-4.2042,-4.2055,-4.2012,-4.1992,-4.2036,-4.1958,-4.1979,-4.2002,-4.199,-4.1987,-4.2141,-4.208,-4.2147,-4.2249,-4.2292,-4.2312,-4.2329,-4.2384,-4.2405,-4.2157,-4.2158,-4.2158,0,-4.2197,-4.2228,-4.2159,-4.2194,-4.2193,-4.2099,-4.2151,-4.214,-4.2119,-4.2122,-4.2073,-4.2102,-4.2081,-4.2144,-4.2182,-4.2183,-4.2196,-4.2149,-4.2315,-4.2331,-4.2346,-4.2398,-4.2419,-4.2166,-4.2165,-4.2164,-4.2163,0,-4.2353,-4.2377,-4.2422,-4.2403,-4.2408,-4.2452,-4.2391,-4.2404,-4.2358,-4.2323,-4.237,-4.2342,-4.2343,-4.2355,-4.231,-4.2413,-4.2387,-4.2329,-4.2242,-4.2379,-4.2426,-4.2446,-4.2178,-4.2175,-4.2172,-4.217,0,0,-4.2589,-4.2534,-4.2551,-4.2542,-4.2508,-4.2526,-4.2567,-4.2568,-4.2581,-4.2572,-4.2604,-4.2628,-4.2574,-4.2571,-4.2524,-4.2562,-4.2687,-4.2499,-4.2497,-4.2534,-4.28,-4.2843,-4.2867,-4.2648,-4.2651,-4.2654,-4.2801,0,-4.2734,-4.2798,-4.2739,-4.2816,-4.2837,-4.2751,-4.2786,-4.2771,-4.274,-4.2755,-4.2722,-4.274,-4.2667,-4.2665,-4.2699,-4.2665,-4.2739,-4.2653,-4.2678,-4.2679,-4.2684,-4.2891,-4.2937,-4.3077,-4.2819,-4.2822,-4.2825,0,-4.291,-4.2908,-4.2987,-4.295,-4.2957,-4.299,-4.2987,-4.3003,-4.2984,-4.296,-4.2958,-4.2901,-4.2941,-4.2859,-4.2912,-4.2856,-4.2863,-4.2848,-4.2852,-4.285,-4.2759,-4.2895,-4.312,-4.3141,-4.2853,-4.2851,-4.2849,0,-4.3073,-4.3091,-4.314,-4.3136,-4.3094,-4.3119,-4.3103,-4.308,-4.3086,-4.3085,-4.3088,-4.3092,-4.3094,-4.3099,-4.3046,-4.2991,-4.3107,-4.302,-4.3088,-4.309,-4.3114,-4.3113,-4.3344,-4.3122,-4.3122,-4.3122,-4.3121,0,-4.324,-4.3292,-4.3213,-4.3243,-4.33,-4.3233,-4.3291,-4.3266,-4.3247,-4.3273,-4.3199,-4.3225,-4.3154,-4.3173,-4.3132,-4.3183,-4.3185,-4.3167,-4.3155,-4.3172,-4.3175,-4.3174,-4.3163,-4.3127,-4.3126,-4.3125,-4.3124,0,-4.343,-4.338,-4.3428,-4.3385,-4.3376,-4.342,-4.3383,-4.3411,-4.3377,-4.341,-4.3414,-4.3361,-4.3379,-4.3328,-4.3339,-4.3311,-4.3385,-4.3358,-4.3391,-4.3382,-4.3453,-4.3447,-4.369,-4.3718,-4.348,-4.3483,-4.3485,0,-4.3539,-4.3577,-4.3539,-4.355,-4.3538,-4.3558,-4.3563,-4.35,-4.3509,-4.3493,-4.3523,-4.3535,-4.3542,-4.3576,-4.3539,-4.3548,-4.352,-4.3605,-4.3521,-4.3538,-4.3521,-4.3518,-4.3522,-4.3622,-4.3625,-4.3627,-4.3629,0,-4.3737,-4.3711,-4.3721,-4.3724,-4.3732,-4.3731,-4.3725,-4.3739,-4.3672,-4.3686,-4.3704,-4.371,-4.3721,-4.3735,-4.3737,-4.3721,-4.3665,-4.3656,-4.3672,-4.3689,-4.3707,-4.3698,-4.3437,-4.365,-4.3648,-4.3647,-4.3645,-4.3645,-4.3889,-4.3919,-4.3898,-4.3912,-4.3901,-4.3898,-4.3922,-4.3891,-4.3905,-4.3909,-4.3872,-4.3899,-4.3882,-4.3877,-4.3869,-4.389,-4.3851,-4.3874,-4.388,-4.3886,-4.3898,-4.3705,-4.389,-4.3889,-4.3888,-4.3888,-4.3887,0,-4.4083,-4.4066,-4.408,-4.4074,-4.4086,-4.4032,-4.4024,-4.4037,-4.4061,-4.405,-4.4059,-4.4081,-4.4095,-4.4061,-4.407,-4.4093,-4.4068,-4.4098,-4.4095,-4.4092,-4.3932,-4.3917,-4.4118,-4.4118,-4.4118,-4.4118,-4.4118,-4.4118,-4.4185,-4.4233,-4.4205,-4.4249,-4.4231,-4.4256,-4.4256,-4.4253,-4.4244,-4.4272,-4.4283,-4.4261,-4.4241,-4.4248,-4.426,-4.4249,-4.4256,-4.4295,-4.4276,-4.4126,-4.4103,-4.4082,-4.4067,-4.4297,-4.4297,-4.4434,-4.4435,-4.4436]},{"header":{"parameterUnit":"m.s-1","parameterCategory":1,"la1":30.2991,"la2":30.254,"lo1":-89.0895,"lo2":-89.0444,"dy":0.0017,"dx":0.0017,"nx":28,"ny":28,"refTime":"2024-05-20T09:00:00:Z","depth":0,"parameterNumber":3,"parameterNumberName":"V-component_of_WINDS"},"data":[0,0,0,0,0,0,0,0,0,0,0,0,0,0,0,0,0,0,0,0,0,0,0,0,0,0,0,0,0,0,0,0,0,0,0,0,0,0,0,0,0,0,0,0,0,0,0,0,0,0,0,0,0,0,0,0,0,0,2.5608,2.5608,0,2.5608,2.5608,2.5608,2.5674,2.5675,2.5677,2.5679,2.5672,2.567,2.5668,0,0,0,0,0,0,0,0,0,0,0,0,0,2.5657,2.5656,2.5608,2.5608,2.5608,2.5608,2.5608,2.5608,2.5673,2.5675,2.5678,2.568,2.5673,2.567,2.5668,0,0,0,0,0,0,0,0,0,0,0,0,0,2.5644,2.5655,2.5608,2.564,2.5643,2.5608,2.5608,2.5608,2.5673,2.5676,2.5678,2.5681,2.5673,2.5671,2.5668,2.5599,0,0,2.566,2.5659,0,0,0,0,0,0,0,0,2.5645,2.5642,2.5636,2.5638,2.5641,2.5644,2.5623,2.5605,2.5672,2.5661,2.5679,2.5682,2.566,2.5659,2.5653,2.5599,2.5599,2.5659,2.5658,2.5657,2.5656,0,0,0,0,0,0,0,2.5646,2.5643,2.5608,2.5635,2.5639,2.5653,2.5654,2.562,2.5646,2.5663,2.5667,2.5667,2.5662,2.5655,2.5653,2.5599,2.566,2.5657,2.5656,2.5654,2.5489,2.5486,0,0,0,0,0,0,2.5643,2.5643,2.5608,2.5608,2.565,2.565,2.5651,2.564,2.5647,2.565,2.5665,2.567,2.5658,2.5656,2.5653,2.5573,2.5657,2.5654,2.5653,2.5492,2.5488,2.5485,0,0,0,0,0,0,2.5644,2.5639,2.5608,2.5627,2.5624,2.5647,2.5634,2.5639,2.5632,2.5648,2.5652,2.5653,2.566,2.5657,2.5613,2.5573,2.5653,2.5651,2.5495,2.5491,2.5487,2.5411,0,0,0,0,0,0,2.5645,2.5639,2.5614,2.5626,2.5623,2.5569,2.5631,2.5637,2.5628,2.5635,2.5639,2.5642,2.5662,2.5617,2.561,2.5571,2.5648,2.5499,2.5493,2.5488,2.5417,2.5405,2.5395,0,0,0,0,0,2.5646,2.5591,2.5613,2.5608,2.5593,2.5566,2.5564,2.5591,2.5625,2.5599,2.561,2.5642,2.558,2.5611,2.5605,2.5564,2.5501,2.5495,2.5489,2.5423,2.5408,2.5395,0,0,0,0,0,0,2.5571,2.5593,2.5617,2.5565,2.5564,2.5578,2.5546,2.5575,2.5562,2.5568,2.56,2.56,2.5551,2.5554,2.5589,2.5499,2.5546,2.5538,2.5498,2.5484,2.5473,2.5472,2.5646,0,0,0,0,0,2.555,2.5529,2.5548,2.55,2.5498,2.5522,2.5512,2.5533,2.5532,2.5531,2.5539,2.5534,2.5514,2.55,2.5482,2.542,2.542,2.5389,2.5377,2.5368,2.5359,2.5326,2.5312,2.5465,2.5465,2.5465,0,0,2.5502,2.5512,2.5496,2.5485,2.5487,2.5462,2.5521,2.5493,2.5474,2.5526,2.5485,2.5491,2.5488,2.5435,2.5412,2.5435,2.5318,2.536,2.5352,2.5349,2.5318,2.5303,2.529,2.5461,2.5461,2.5462,0,0,2.5404,2.541,2.537,2.5372,2.5375,2.5391,2.5382,2.5392,2.5399,2.5359,2.5398,2.5376,2.534,2.5337,2.533,2.5234,2.5262,2.5227,2.5166,2.5133,2.5121,2.511,2.5074,2.5061,2.5219,2.5219,2.5219,0,2.5344,2.5311,2.5345,2.5315,2.5308,2.5358,2.5317,2.5316,2.5312,2.5305,2.5333,2.5291,2.5293,2.5239,2.5215,2.5209,2.5198,2.5225,2.512,2.511,2.5101,2.5066,2.5053,2.5215,2.5215,2.5216,2.5216,0,2.5236,2.5213,2.5181,2.5178,2.5169,2.5133,2.516,2.5146,2.5169,2.5182,2.5141,2.5146,2.513,2.5119,2.514,2.5068,2.5083,2.5115,2.5163,2.5081,2.5049,2.5036,2.5209,2.521,2.5211,2.5213,0,0,2.5087,2.5107,2.5094,2.5094,2.5102,2.5084,2.505,2.5038,2.5024,2.502,2.4991,2.4962,2.4993,2.4985,2.5007,2.4978,2.49,2.5014,2.5014,2.4991,2.4819,2.4793,2.4777,2.492,2.4918,2.4916,2.4818,0,2.499,2.4936,2.4967,2.4908,2.4886,2.4934,2.4905,2.4905,2.4918,2.49,2.4913,2.489,2.4933,2.4929,2.4904,2.4915,2.4865,2.4922,2.4891,2.4889,2.4887,2.4761,2.4733,2.464,2.4806,2.4804,2.4803,0,2.4869,2.4863,2.4802,2.4816,2.4808,2.4781,2.4772,2.4755,2.4757,2.4768,2.4761,2.479,2.4757,2.4807,2.476,2.4798,2.4788,2.4792,2.4789,2.4784,2.4839,2.475,2.4612,2.4597,2.4784,2.4786,2.4787,0,2.4764,2.4741,2.4701,2.47,2.4715,2.4695,2.47,2.4705,2.4696,2.4688,2.4682,2.4669,2.4661,2.465,2.4674,2.4709,2.4623,2.4676,2.4629,2.4628,2.4606,2.4606,2.4461,2.4604,2.4604,2.4604,2.4604,0,2.4651,2.4611,2.4654,2.4629,2.4586,2.4622,2.4578,2.4588,2.4592,2.4569,2.461,2.4587,2.4622,2.4601,2.462,2.4578,2.4574,2.458,2.4585,2.4575,2.4574,2.4566,2.4572,2.46,2.4601,2.4602,2.4603,0,2.4524,2.4552,2.4512,2.4531,2.4535,2.4502,2.4517,2.4494,2.4511,2.4481,2.4476,2.4501,2.4479,2.4504,2.4483,2.4496,2.4438,2.4454,2.4438,2.4441,2.4393,2.4396,2.4235,2.4215,2.4372,2.4371,2.437,0,2.4449,2.442,2.4437,2.4426,2.4429,2.441,2.4402,2.4437,2.4426,2.4427,2.4403,2.4387,2.4374,2.4338,2.4352,2.4337,2.4351,2.4296,2.4349,2.434,2.4348,2.4348,2.4344,2.4284,2.4282,2.428,2.4279,0,2.4311,2.4327,2.4315,2.4308,2.4297,2.4292,2.429,2.4278,2.4315,2.4301,2.4281,2.4272,2.4253,2.4234,2.4224,2.4227,2.4258,2.4263,2.4251,2.4239,2.423,2.4232,2.4406,2.4266,2.4267,2.4268,2.4269,2.4269,2.4207,2.4183,2.4192,2.4177,2.418,2.4178,2.4157,2.4173,2.4158,2.4147,2.4168,2.4143,2.4146,2.4136,2.4136,2.4115,2.4138,2.4121,2.4116,2.4111,2.4103,2.4236,2.4113,2.4114,2.4114,2.4115,2.4115,0,2.407,2.4079,2.4065,2.4062,2.405,2.4085,2.4085,2.4071,2.4049,2.4051,2.404,2.4017,2.4,2.4015,2.4,2.3981,2.3994,2.3975,2.3976,2.3976,2.4084,2.4095,2.3965,2.3965,2.3965,2.3965,2.3965,2.3965,2.3997,2.3959,2.3976,2.3939,2.3948,2.3925,2.3922,2.392,2.3922,2.3895,2.3882,2.3894,2.39,2.3887,2.3873,2.3878,2.3869,2.3844,2.3854,2.3953,2.3968,2.3982,2.3992,2.3843,2.3843,2.3747,2.3746,2.3746]}]]